FW4012 Weather Reports


Display with metric or nautical units.
time (UTC)temp
F
wind
direction
speed
MPH
gust
MPH
rain 1hr
in
rain 24hr
in
rain mn
in
humidity
%
barometer
mb
20260503225740 54 177 0.0 1.0 0.00 0.00 0.00 79 1016.9
20260503225239 54 177 0.0 1.0 0.00 0.00 0.00 79 1016.8
20260503224739 54 177 0.0 1.0 0.00 0.00 0.00 79 1016.8
20260503224309 54 177 0.0 0.0 0.00 0.00 0.00 79 1016.7
20260503223747 54 177 0.0 0.0 0.00 0.00 0.00 79 1016.8
20260503223243 54 177 0.0 0.0 0.00 0.00 0.00 79 1016.8
20260503222812 54 177 0.0 0.0 0.00 0.00 0.00 79 1016.9
20260503222249 54 177 0.0 1.0 0.00 0.00 0.00 78 1016.8
20260503221749 54 177 0.0 1.0 0.00 0.00 0.00 78 1016.6
20260503221249 54 177 0.0 1.0 0.00 0.00 0.00 78 1016.6
20260503220727 54 177 0.0 2.0 0.00 0.00 0.00 78 1016.5
20260503220225 54 177 1.0 2.0 0.00 0.00 0.00 78 1016.5
20260503215801 55 177 0.0 1.0 0.00 0.00 0.00 77 1016.6
20260503215234 55 177 0.0 2.0 0.00 0.00 0.00 77 1016.5
20260503214733 55 177 0.0 1.0 0.00 0.00 0.00 77 1016.4
20260503214228 55 177 0.0 1.0 0.00 0.00 0.00 77 1016.5
20260503213759 55 177 0.0 1.0 0.00 0.00 0.00 77 1016.5
20260503213236 55 177 0.0 2.0 0.00 0.00 0.00 77 1016.4
20260503212736 55 177 0.0 2.0 0.00 0.00 0.00 77 1016.3
20260503212238 55 177 0.0 1.0 0.00 0.00 0.00 77 1016.4
20260503211756 55 177 0.0 1.0 0.00 0.00 0.00 76 1016.4
20260503211233 55 177 0.0 1.0 0.00 0.00 0.00 76 1016.3
20260503210732 55 177 0.0 2.0 0.00 0.00 0.00 76 1016.3
20260503210227 55 177 1.0 2.0 0.00 0.00 0.00 76 1016.3
20260503205746 55 177 0.0 0.0 0.00 0.00 0.00 76 1016.3
20260503205231 55 177 0.0 0.0 0.00 0.00 0.00 76 1016.4
20260503204733 55 177 0.0 0.0 0.00 0.00 0.00 76 1016.4
20260503204231 55 177 0.0 0.0 0.00 0.00 0.00 75 1016.4
20260503203731 56 177 0.0 0.0 0.00 0.00 0.00 75 1016.4
20260503203233 56 177 0.0 0.0 0.00 0.00 0.00 75 1016.4
20260503202733 56 177 0.0 0.0 0.00 0.00 0.00 75 1016.4
20260503202232 56 177 0.0 0.0 0.00 0.00 0.00 75 1016.3
20260503201731 56 177 0.0 0.0 0.00 0.00 0.00 74 1016.3
20260503201232 56 177 0.0 0.0 0.00 0.00 0.00 74 1016.2
20260503200727 57 177 0.0 0.0 0.00 0.00 0.00 74 1016.2
20260503200227 57 177 0.0 1.0 0.00 0.00 0.00 74 1016.1
20260503195726 57 177 0.0 1.0 0.00 0.00 0.00 74 1016.1
20260503195235 58 177 0.0 0.0 0.00 0.00 0.00 73 1016.0
20260503194736 58 177 0.0 0.0 0.00 0.00 0.00 73 1016.1
20260503194255 58 177 0.0 0.0 0.00 0.00 0.00 72 1015.9
20260503193734 59 177 0.0 0.0 0.00 0.00 0.00 71 1015.9
20260503193254 59 177 0.0 0.0 0.00 0.00 0.00 71 1015.8
20260503192731 60 177 0.0 1.0 0.00 0.00 0.00 70 1015.7
20260503192226 60 177 0.0 1.0 0.00 0.00 0.00 71 1015.8
20260503191723 60 177 0.0 1.0 0.00 0.00 0.00 70 1015.6
20260503191242 61 177 0.0 0.0 0.00 0.00 0.00 69 1015.5
20260503190740 61 177 0.0 0.0 0.00 0.00 0.00 68 1015.5
20260503190248 62 177 0.0 2.0 0.00 0.00 0.00 67 1015.5
20260503185747 62 177 0.0 2.0 0.00 0.00 0.00 67 1015.4
20260503185248 62 177 0.0 3.0 0.00 0.00 0.00 67 1015.4
20260503184748 63 177 1.0 3.0 0.00 0.00 0.00 67 1015.3
20260503184248 64 180 0.0 3.0 0.00 0.00 0.00 68 1015.3
20260503183729 64 260 0.0 0.0 0.00 0.00 0.00 67 1015.2
20260503183247 64 260 0.0 0.0 0.00 0.00 0.00 67 1015.3
20260503182727 65 260 0.0 0.0 0.00 0.00 0.00 66 1015.3
20260503182226 65 260 0.0 0.0 0.00 0.00 0.00 65 1015.3
20260503181728 65 260 0.0 0.0 0.00 0.00 0.00 63 1015.2
20260503181228 66 260 0.0 0.0 0.00 0.00 0.00 63 1015.3
20260503180746 66 260 0.0 0.0 0.00 0.00 0.00 63 1015.3
20260503180255 67 260 0.0 1.0 0.00 0.00 0.00 61 1015.3
20260503175755 67 260 0.0 1.0 0.00 0.00 0.00 60 1015.3
20260503175234 67 260 0.0 1.0 0.00 0.00 0.00 59 1015.3
20260503174733 68 260 0.0 2.0 0.00 0.00 0.00 57 1015.4
20260503174228 68 260 1.0 2.0 0.00 0.00 0.00 56 1015.2
20260503173728 68 260 1.0 2.0 0.00 0.00 0.00 55 1015.1
20260503173228 69 260 1.0 2.0 0.00 0.00 0.00 53 1015.2
20260503172727 69 260 0.0 2.0 0.00 0.00 0.00 49 1015.3
20260503172229 69 260 1.0 2.0 0.00 0.00 0.00 48 1015.4
20260503171750 69 260 1.0 2.0 0.00 0.00 0.00 49 1015.3
20260503171228 70 260 0.0 2.0 0.00 0.00 0.00 48 1015.3
20260503170728 70 260 0.0 3.0 0.00 0.00 0.00 48 1015.4
20260503170259 70 260 1.0 3.0 0.00 0.00 0.00 47 1015.3
20260503150735 71 249 3.0 5.0 0.00 0.00 0.00 43 1016.0
20260503150255 71 213 3.0 5.0 0.00 0.00 0.00 41 1016.0
20260503140237 71 189 3.0 8.0 0.00 0.00 0.00 45 1016.7
20260503131235 71 235 3.0 12.0 0.00 0.00 0.00 46 1017.1
20260503130735 72 252 2.0 9.0 0.00 0.00 0.00 45 1017.1
20260503130234 71 261 3.0 9.0 0.00 0.00 0.00 45 1017.2
20260503110734 70 126 2.0 10.0 0.00 0.00 0.00 43 1017.5
20260503110240 71 159 5.0 10.0 0.00 0.00 0.00 41 1017.5
20260503081230 66 94 1.0 4.0 0.00 0.00 0.00 59 1018.0
20260503080728 66 80 2.0 6.0 0.00 0.00 0.00 58 1018.0
20260503080227 66 118 3.0 6.0 0.00 0.00 0.00 59 1018.1
20260503072749 64 23 3.0 5.0 0.00 0.00 0.00 60 1018.2
20260503072229 64 321 3.0 8.0 0.00 0.00 0.00 60 1018.1
20260503071729 64 42 4.0 8.0 0.00 0.00 0.00 60 1018.2
20260503071231 64 30 3.0 6.0 0.00 0.00 0.00 61 1018.2
20260503070730 63 17 2.0 6.0 0.00 0.00 0.00 62 1018.2
20260503070232 63 21 3.0 6.0 0.00 0.00 0.00 62 1018.2
20260503060225 55 327 3.0 4.0 0.00 0.00 0.00 82 1018.4
20260503054735 53 321 0.0 3.0 0.00 0.00 0.00 86 1018.3
20260503054235 52 322 1.0 3.0 0.00 0.00 0.00 86 1018.3
20260503053756 52 321 1.0 3.0 0.00 0.00 0.00 87 1018.2
20260503053236 51 321 1.0 2.0 0.00 0.00 0.00 87 1018.2
20260503052808 51 321 0.0 0.0 0.00 0.00 0.00 87 1018.2
20260503052228 50 321 0.0 1.0 0.00 0.00 0.00 87 1018.2
20260503051728 50 321 1.0 1.0 0.00 0.00 0.00 87 1018.1
20260503051228 50 321 0.0 1.0 0.00 0.00 0.00 87 1018.1
20260503050725 49 321 0.0 1.0 0.00 0.00 0.00 87 1018.1
20260503050225 49 321 0.0 2.0 0.00 0.00 0.00 87 1018.1
20260503045742 49 321 0.0 3.0 0.00 0.00 0.00 87 1018.1
20260503045304 48 321 2.0 3.0 0.00 0.00 0.00 87 1018.1
20260503044741 48 319 0.0 3.0 0.00 0.00 0.00 87 1018.1
20260503044249 48 319 0.0 1.0 0.00 0.00 0.00 87 1018.1
20260503043729 48 319 0.0 2.0 0.00 0.00 0.00 87 1018.2
20260503043250 48 319 1.0 2.0 0.00 0.00 0.00 87 1018.1
20260503042728 47 319 1.0 1.0 0.00 0.00 0.00 86 1018.2
20260503042225 48 319 0.0 1.0 0.00 0.00 0.00 86 1018.2
20260503041724 48 319 0.0 2.0 0.00 0.00 0.00 86 1018.2
20260503041242 48 319 1.0 3.0 0.00 0.00 0.00 86 1018.3
20260503040740 48 319 2.0 3.0 0.00 0.00 0.00 86 1018.2
20260503040234 48 319 1.0 3.0 0.00 0.00 0.00 86 1018.2
20260503035804 48 319 2.0 3.0 0.00 0.00 0.00 86 1018.2
20260503035229 48 327 3.0 3.0 0.00 0.00 0.00 86 1018.2
20260503034729 48 329 1.0 2.0 0.00 0.00 0.00 87 1018.2
20260503034227 48 328 1.0 3.0 0.00 0.00 0.00 87 1018.1
20260503033753 48 329 1.0 3.0 0.00 0.00 0.00 87 1018.1
20260503033252 47 328 2.0 3.0 0.00 0.00 0.00 87 1018.2
20260503032811 47 328 1.0 3.0 0.00 0.00 0.00 87 1018.2
20260503032232 47 328 2.0 3.0 0.00 0.00 0.00 87 1018.2
20260503031728 47 327 1.0 3.0 0.00 0.00 0.00 87 1018.2
20260503031229 47 331 2.0 3.0 0.00 0.00 0.00 87 1018.1
20260503030751 47 334 2.0 3.0 0.00 0.00 0.00 87 1018.2
20260503030227 47 334 1.0 2.0 0.00 0.00 0.00 87 1018.3
20260503025727 47 334 1.0 2.0 0.00 0.00 0.00 86 1018.2
20260503025250 47 334 1.0 2.0 0.00 0.00 0.00 87 1018.3
20260503024733 47 334 0.0 0.0 0.00 0.00 0.00 86 1018.3
20260503024250 47 334 0.0 2.0 0.00 0.00 0.00 86 1018.3
20260503023727 47 334 0.0 3.0 0.00 0.00 0.00 86 1018.3
20260503023228 47 335 0.0 4.0 0.00 0.00 0.00 86 1018.2
20260503022728 47 335 3.0 4.0 0.00 0.00 0.00 86 1018.3
20260503022227 47 330 2.0 4.0 0.00 0.00 0.00 86 1018.4
20260503021727 47 330 1.0 2.0 0.00 0.00 0.00 86 1018.4
20260503021248 47 330 1.0 2.0 0.00 0.00 0.00 86 1018.5
20260503020727 47 331 0.0 2.0 0.00 0.00 0.00 86 1018.4
20260503020225 47 331 1.0 3.0 0.00 0.00 0.00 86 1018.5
20260503015741 48 331 2.0 3.0 0.00 0.00 0.00 85 1018.5
20260503015235 48 331 0.0 1.0 0.00 0.00 0.00 85 1018.6
20260503014807 48 331 1.0 4.0 0.00 0.00 0.00 85 1018.4
20260503014244 48 331 2.0 4.0 0.00 0.00 0.00 85 1018.5
20260503013743 48 330 1.0 3.0 0.00 0.00 0.00 85 1018.6
20260503013242 48 330 2.0 3.0 0.00 0.00 0.00 84 1018.5
20260503012803 48 330 1.0 2.0 0.00 0.00 0.00 84 1018.5
20260503012241 48 330 2.0 2.0 0.00 0.00 0.00 84 1018.5
20260503011756 49 330 1.0 3.0 0.00 0.00 0.00 84 1018.5
20260503011230 49 330 2.0 3.0 0.00 0.00 0.00 84 1018.6
20260503010731 49 330 0.0 2.0 0.00 0.00 0.00 83 1018.6
20260503010232 49 330 1.0 3.0 0.00 0.00 0.00 83 1018.7
20260503005732 50 330 2.0 3.0 0.00 0.00 0.00 83 1018.8
20260503005233 50 330 2.0 3.0 0.00 0.00 0.00 83 1018.8
20260503004744 50 331 1.0 3.0 0.00 0.00 0.00 83 1018.9
20260503004304 50 331 2.0 3.0 0.00 0.00 0.00 83 1018.9
20260503003741 50 326 2.0 3.0 0.00 0.00 0.00 83 1019.0
20260503003239 50 326 0.0 2.0 0.00 0.00 0.00 83 1019.1
20260503002800 50 326 0.0 3.0 0.00 0.00 0.00 83 1019.2
20260503002238 50 326 1.0 4.0 0.00 0.00 0.00 84 1019.2
20260503001734 50 326 2.0 4.0 0.00 0.00 0.00 84 1019.3
20260503001234 49 309 0.0 0.0 0.00 0.00 0.00 84 1019.3
20260503000725 49 303 0.0 0.0 0.00 0.00 0.00 84 1019.3
20260503000241 49 303 0.0 0.0 0.00 0.00 0.00 83 1019.3
20260502235740 49 303 0.0 0.0 0.00 0.00 0.00 83 1019.4
20260502235228 49 302 0.0 0.0 0.00 0.00 0.00 83 1019.4
20260502234835 49 302 0.0 0.0 0.00 0.00 0.00 83 1019.6
20260502233735 49 302 0.0 0.0 0.00 0.00 0.00 83 1019.6
20260502233235 50 302 0.0 0.0 0.00 0.00 0.00 83 1019.6
20260502232807 50 302 0.0 0.0 0.00 0.00 0.00 83 1019.6
20260502232224 50 302 0.0 0.0 0.00 0.00 0.00 82 1019.7
20260502231726 50 302 0.0 0.0 0.00 0.00 0.00 83 1019.8
20260502231254 50 302 0.0 0.0 0.00 0.00 0.00 82 1019.6
20260502230746 50 302 0.0 0.0 0.00 0.00 0.00 82 1019.7
20260502230235 50 302 0.0 0.0 0.00 0.00 0.00 82 1019.6